Location: Avenches
(46.8809°N, 7.0410°E)
Time: 18:05:30
(UTC+00:00)

Meteor 1-21 Rocket - Pass Details

Date: 30 March 2020
Orbit: 833 x 908 km, 81.2° (Epoch: 24 May)

Event Time Altitude Azimuth Distance (km) Brightness Sun altitude
Rises 19:54:02 0° 347° (NNW) 3,416 8.0 -19.4°
Reaches altitude 10° 19:56:28 10° 345° (NNW) 2,469 7.2 -19.8°
Maximum altitude 20:02:01 72° 262° (W) 879 4.3 -20.6°
Enters shadow 20:05:57 20° 181° (S) 1,851 5.7 -21.2°
